Location: Unspecified
(0.0000°N, 0.0000°E)
Time: 18:49:45
(UTC+00:00)

deb Delta 126 - Pass Details

Date: 18 February 2026
Orbit: 1485 x 1545 km, 102.1° (Epoch: 6 March)

Event Time Altitude Azimuth Distance (km) Brightness Sun altitude
Exits shadow 02:24:31 15° 152° (SSE) 3,255 ? -55.6°
Drops below altitude 10° 02:26:04 10° 160° (SSE) 3,645 ? -55.2°
Sets 02:29:25 0° 172° (S) 4,620 ? -54.4°
